Richlands, VA

10:58 PM EDT on May 28, 2017 (GMT -0400)
Tazewell County

Weather History for KJFZ - March, 2013

Change the Weather History Date:

Friday, March 8, 2013

  Actual Average (KBLF) Record (KBLF)
Temperature  
Mean Temperature 32 °F -  
Max Temperature 39 °F 48 °F 77 °F (2000)
Min Temperature 26 °F 30 °F 4 °F (1986)
Degree Days  
Heating Degree Days 32    
Moisture  
Dew Point 26 °F    
Average Humidity 86    
Maximum Humidity 100    
Minimum Humidity 65    
Precipitation  
Precipitation 0.00 in - - ()
Sea Level Pressure  
Sea Level Pressure 30.27 in    
Wind  
Wind Speed 5 mph (NW)    
Max Wind Speed 12 mph    
Max Gust Speed -    
Visibility 10 miles    
Events      
Averages and records for this station are not official NWS values.
T = Trace of Precipitation, MM = Missing Value Source: NWS Daily Summary

Daily Weather History Graph

Daily Weather History Graph

Search for Another Location

Airport or City:

Trip Planner

Search our weather history database for the weather conditions in past years. The results will help you decide how hot, cold, wet, or windy it might be!

Date:

Astronomy

Mar. 08, 2013 Rise Set
Actual Time 6:48 AM EST 6:28 PM EST
Civil Twilight 6:22 AM EST 6:54 PM EST
Nautical Twilight 5:52 AM EST 7:24 PM EST
Astronomical Twilight 5:21 AM EST 7:54 PM EST
Moon 4:27 AM EST (3/8) 3:25 PM EST (3/8)
Length of Visible Light 12h 32m
Length of Day
11h 40m
Waning Crescent, 12% of the Moon is Illuminated
Mar 8
Waning Crescent
Mar 11
New
Mar 19
First Quarter
Mar 27
Full
Apr 3
Last Quarter

Hourly Weather History & Observations

Time (EST) Temp. Windchill Dew Point Humidity Pressure Visibility Wind Dir Wind Speed Gust Speed Precip Events Conditions
12:15 AM 26.6 °F 21.2 °F 26.6 °F 100% 30.24 in 10.0 mi WNW 4.6 mph - N/A   Unknown
12:35 AM 26.6 °F 20.0 °F 26.6 °F 100% 30.23 in 10.0 mi West 5.8 mph - N/A   Unknown
12:55 AM 26.6 °F 22.6 °F 26.6 °F 100% 30.24 in 10.0 mi WNW 3.5 mph - N/A   Unknown
1:15 AM 26.6 °F 21.2 °F 26.6 °F 100% 30.24 in 10.0 mi NW 4.6 mph - N/A   Unknown
1:35 AM 26.6 °F 22.6 °F 26.6 °F 100% 30.24 in 10.0 mi NW 3.5 mph - N/A   Partly Cloudy
1:55 AM 26.6 °F 21.2 °F 26.6 °F 100% 30.24 in 10.0 mi WNW 4.6 mph - N/A   Scattered Clouds
2:15 AM 26.6 °F 20.0 °F 26.6 °F 100% 30.23 in 10.0 mi NW 5.8 mph - N/A   Partly Cloudy
2:35 AM 26.6 °F 21.2 °F 26.6 °F 100% 30.23 in 10.0 mi Variable 4.6 mph - N/A   Unknown
2:55 AM 26.6 °F 21.2 °F 26.6 °F 100% 30.22 in 10.0 mi NW 4.6 mph - N/A   Unknown
3:15 AM 26.6 °F 22.6 °F 26.6 °F 100% 30.22 in 10.0 mi NNW 3.5 mph - N/A   Unknown
3:35 AM 26.6 °F 21.2 °F 26.6 °F 100% 30.22 in 10.0 mi NNW 4.6 mph - N/A   Partly Cloudy
3:55 AM 26.6 °F 18.2 °F 26.6 °F 100% 30.21 in 10.0 mi NW 8.1 mph - N/A   Unknown
4:15 AM 26.6 °F 19.1 °F 26.6 °F 100% 30.23 in 10.0 mi NW 6.9 mph - N/A   Partly Cloudy
4:35 AM 26.6 °F 21.2 °F 26.6 °F 100% 30.24 in 10.0 mi NW 4.6 mph - N/A   Unknown
4:55 AM 26.6 °F 20.0 °F 26.6 °F 100% 30.24 in 10.0 mi WNW 5.8 mph - N/A   Unknown
5:15 AM 26.6 °F 21.2 °F 26.6 °F 100% 30.23 in 10.0 mi NW 4.6 mph - N/A   Unknown
5:35 AM 26.6 °F 18.2 °F 26.6 °F 100% 30.24 in 10.0 mi NW 8.1 mph - N/A   Unknown
5:55 AM 26.6 °F 21.2 °F 26.6 °F 100% 30.25 in 10.0 mi NW 4.6 mph - N/A   Unknown
6:15 AM 26.6 °F 21.2 °F 26.6 °F 100% 30.25 in 10.0 mi NW 4.6 mph - N/A   Unknown
6:35 AM 26.6 °F 21.2 °F 26.6 °F 100% 30.25 in 10.0 mi NW 4.6 mph - N/A   Unknown
6:55 AM 26.6 °F 20.0 °F 26.6 °F 100% 30.26 in 10.0 mi NW 5.8 mph - N/A   Unknown
7:15 AM 26.6 °F 19.1 °F 26.6 °F 100% 30.26 in 10.0 mi Variable 6.9 mph - N/A   Unknown
7:35 AM 26.6 °F 19.1 °F 26.6 °F 100% 30.28 in 10.0 mi NW 6.9 mph - N/A   Unknown
7:55 AM 26.6 °F 20.0 °F 26.6 °F 100% 30.30 in 10.0 mi NW 5.8 mph - N/A   Unknown
8:15 AM 26.6 °F 20.0 °F 26.6 °F 100% 30.30 in 8.0 mi NW 5.8 mph - N/A   Unknown
8:35 AM 26.6 °F 19.1 °F 26.6 °F 100% 30.31 in 8.0 mi NW 6.9 mph - N/A   Unknown
8:55 AM 26.6 °F 20.0 °F 26.6 °F 100% 30.31 in 10.0 mi Variable 5.8 mph - N/A   Unknown
9:15 AM 26.6 °F 21.2 °F 26.6 °F 100% 30.30 in 10.0 mi Variable 4.6 mph - N/A   Unknown
9:35 AM 28.4 °F 23.3 °F 26.6 °F 93% 30.30 in 9.0 mi Variable 4.6 mph - N/A   Unknown
9:55 AM 28.4 °F 18.5 °F 26.6 °F 93% 30.30 in 10.0 mi NNW 11.5 mph - N/A   Unknown
10:15 AM 28.4 °F 19.1 °F 26.6 °F 93% 30.30 in 10.0 mi North 10.4 mph - N/A   Unknown
10:35 AM 28.4 °F 20.4 °F 24.8 °F 86% 30.31 in 10.0 mi NNW 8.1 mph - N/A   Partly Cloudy
10:55 AM 30.2 °F 22.6 °F 26.6 °F 86% 30.31 in 10.0 mi North 8.1 mph - N/A   Partly Cloudy
11:15 AM 30.2 °F 23.4 °F 26.6 °F 86% 30.31 in 10.0 mi Variable 6.9 mph - N/A   Scattered Clouds
11:35 AM 30.2 °F 22.6 °F 26.6 °F 86% 30.31 in 10.0 mi NNW 8.1 mph - N/A   Partly Cloudy
11:55 AM 32.0 °F 25.6 °F 26.6 °F 80% 30.30 in 10.0 mi Variable 6.9 mph - N/A   Partly Cloudy
12:15 PM 32.0 °F 26.4 °F 24.8 °F 75% 30.30 in 10.0 mi Variable 5.8 mph - N/A   Partly Cloudy
12:35 PM 33.8 °F 27.7 °F 24.8 °F 70% 30.29 in 10.0 mi North 6.9 mph - N/A   Partly Cloudy
12:55 PM 35.6 °F 28.6 °F 28.4 °F 75% 30.28 in 10.0 mi NW 9.2 mph - N/A   Partly Cloudy
1:15 PM 35.6 °F 29.9 °F 26.6 °F 70% 30.28 in 10.0 mi Variable 6.9 mph - N/A   Partly Cloudy
1:35 PM 35.6 °F 31.7 °F 26.6 °F 70% 30.27 in 10.0 mi Variable 4.6 mph - N/A   Partly Cloudy
1:55 PM 35.6 °F 30.7 °F 24.8 °F 65% 30.27 in 10.0 mi Variable 5.8 mph - N/A   Clear
2:15 PM 37.4 °F 30.8 °F 28.4 °F 70% 30.27 in 10.0 mi NW 9.2 mph - N/A   Partly Cloudy
2:35 PM 37.4 °F 30.3 °F 28.4 °F 70% 30.27 in 10.0 mi NW 10.4 mph - N/A   Partly Cloudy
2:55 PM 37.4 °F 31.4 °F 26.6 °F 65% 30.27 in 10.0 mi NW 8.1 mph - N/A   Partly Cloudy
3:15 PM 37.4 °F 32.8 °F 26.6 °F 65% 30.28 in 10.0 mi Variable 5.8 mph - N/A   Partly Cloudy
3:35 PM 37.4 °F 32.8 °F 26.6 °F 65% 30.29 in 10.0 mi Variable 5.8 mph - N/A   Partly Cloudy
3:55 PM 39.2 °F 33.0 °F 28.4 °F 65% 30.29 in 10.0 mi North 9.2 mph - N/A   Mostly Cloudy
4:15 PM 37.4 °F 30.8 °F 26.6 °F 65% 30.28 in 10.0 mi NW 9.2 mph - N/A   Partly Cloudy
4:35 PM 37.4 °F 32.1 °F 26.6 °F 65% 30.29 in 10.0 mi NW 6.9 mph - N/A   Partly Cloudy
4:55 PM 37.4 °F 32.1 °F 26.6 °F 65% 30.29 in 10.0 mi NW 6.9 mph - N/A   Partly Cloudy
5:15 PM 37.4 °F 31.4 °F 26.6 °F 65% 30.28 in 10.0 mi NNW 8.1 mph - N/A   Clear
5:35 PM 35.6 °F 31.7 °F 24.8 °F 65% 30.28 in 10.0 mi Variable 4.6 mph - N/A   Clear
5:55 PM 35.6 °F 31.7 °F 24.8 °F 65% 30.28 in 10.0 mi North 4.6 mph - N/A   Clear
6:15 PM 33.8 °F 29.6 °F 24.8 °F 70% 30.28 in 10.0 mi NNW 4.6 mph - N/A   Clear
6:35 PM 33.8 °F 29.6 °F 24.8 °F 70% 30.27 in 10.0 mi Variable 4.6 mph - N/A   Clear
6:55 PM 32.0 °F - 24.8 °F 75% 30.27 in 10.0 mi Calm Calm - N/A   Clear
7:15 PM 33.8 °F - 24.8 °F 70% 30.28 in 10.0 mi Calm Calm - N/A   Clear
7:35 PM 33.8 °F 30.8 °F 26.6 °F 75% 30.28 in 10.0 mi NW 3.5 mph - N/A   Clear
7:55 PM 33.8 °F 30.8 °F 26.6 °F 75% 30.29 in 10.0 mi WNW 3.5 mph - N/A   Clear
8:15 PM 32.0 °F 28.7 °F 26.6 °F 80% 30.29 in 10.0 mi NW 3.5 mph - N/A   Clear
8:35 PM 32.0 °F - 26.6 °F 80% 30.29 in 10.0 mi Calm Calm - N/A   Clear
8:55 PM 32.0 °F - 26.6 °F 80% 30.29 in 10.0 mi Calm Calm - N/A   Clear
9:15 PM 30.2 °F - 26.6 °F 86% 30.30 in 10.0 mi Calm Calm - N/A   Clear
9:35 PM 30.2 °F - 26.6 °F 86% 30.31 in 10.0 mi Calm Calm - N/A   Clear
9:55 PM 30.2 °F 26.7 °F 26.6 °F 86% 30.32 in 10.0 mi West 3.5 mph - N/A   Clear
10:15 PM 30.2 °F 26.7 °F 24.8 °F 80% 30.32 in 10.0 mi West 3.5 mph - N/A   Clear
10:35 PM 28.4 °F - 24.8 °F 86% 30.32 in 10.0 mi Calm Calm - N/A   Clear
10:55 PM 28.4 °F - 26.6 °F 93% 30.31 in 10.0 mi Calm Calm - N/A   Clear
11:55 PM 28.4 °F - 24.8 °F 86% 30.29 in 10.0 mi Calm Calm - N/A   Clear